When you browse on this site, cookies collect data to enhance your experience and personalize the content and advertising you see.
Visit our Privacy Policy to learn more. By continuing to use the site, you agree to this use of cookies and data.
  • In Hungary
  • List of Countries
  • For 7 days
  • Water Temperature
  • Satellite Maps
  • Weather Map
  • News
  • Weather Widgets
  • user-avatar
    Login

    Hourly Weather Bialcz

    Today, 16 January, Wednesday

    Time Temperature Precipitation Wind Pressure Humidity
    00:00 +4°C° 0.5 mm 7 mps 751 mmHg 87%
    01:00 +4°C° 0.5 mm 6 mps 752 mmHg 89%
    02:00 +4°C° 0.8 mm 7 mps 752 mmHg 88%
    03:00 +5°C° 0.8 mm 7 mps 752 mmHg 88%
    04:00 +5°C° 0.8 mm 7 mps 752 mmHg 87%
    05:00 +5°C° 0.1 mm 7 mps 752 mmHg 85%
    06:00 +5°C° 0.1 mm 7 mps 752 mmHg 83%
    07:00 +5°C° 0.1 mm 7 mps 752 mmHg 82%
    08:00 +5°C° 0 mm 6 mps 752 mmHg 82%
    09:00 +5°C° 0 mm 6 mps 752 mmHg 82%
    10:00 +5°C° 0 mm 6 mps 752 mmHg 82%
    11:00 +5°C° 0 mm 6 mps 752 mmHg 82%
    12:00 +5°C° 0 mm 6 mps 752 mmHg 83%
    13:00 +5°C° 0 mm 6 mps 752 mmHg 83%
    14:00 +5°C° 0 mm 6 mps 752 mmHg 83%
    15:00 +6°C° 0 mm 5 mps 751 mmHg 83%
    16:00 +6°C° 0 mm 5 mps 751 mmHg 84%
    17:00 +5°C° 0 mm 5 mps 751 mmHg 83%
    18:00 +4°C° 0 mm 6 mps 750 mmHg 82%
    19:00 +4°C° 0 mm 6 mps 750 mmHg 82%
    20:00 +4°C° 0 mm 6 mps 750 mmHg 82%
    21:00 +3°C° 0 mm 6 mps 749 mmHg 81%
    22:00 +2°C° 0 mm 6 mps 749 mmHg 81%
    23:00 +2°C° 0.1 mm 6 mps 748 mmHg 79%

    Tomorrow, 17 January, Thursday

    Time Temperature Precipitation Wind Pressure Humidity
    00:00 +2°C° 0.1 mm 6 mps 748 mmHg 78%
    01:00 +2°C° 0.1 mm 6 mps 747 mmHg 76%
    02:00 +2°C° 0 mm 6 mps 746 mmHg 75%
    03:00 +2°C° 0 mm 6 mps 746 mmHg 75%
    04:00 +2°C° 0 mm 7 mps 746 mmHg 74%
    05:00 +2°C° 0.1 mm 7 mps 746 mmHg 75%
    06:00 +3°C° 0.1 mm 7 mps 746 mmHg 77%
    07:00 +3°C° 0.1 mm 7 mps 746 mmHg 79%
    08:00 +3°C° 0 mm 7 mps 746 mmHg 78%
    09:00 +3°C° 0 mm 7 mps 746 mmHg 77%
    10:00 +3°C° 0 mm 7 mps 747 mmHg 76%
    11:00 +4°C° 0 mm 7 mps 746 mmHg 73%
    12:00 +4°C° 0 mm 7 mps 746 mmHg 70%
    13:00 +4°C° 0 mm 7 mps 746 mmHg 67%
    14:00 +4°C° 0.4 mm 7 mps 746 mmHg 71%
    15:00 +3°C° 0.4 mm 6 mps 746 mmHg 74%
    16:00 +3°C° 0.4 mm 5 mps 746 mmHg 77%
    17:00 +2°C° 1.2 mm 6 mps 746 mmHg 73%
    18:00 +2°C° 1.2 mm 6 mps 746 mmHg 69%
    19:00 +1°C° 1.2 mm 6 mps 747 mmHg 65%
    20:00 +1°C° 0 mm 6 mps 748 mmHg 65%
    21:00 -1°C° 0 mm 7 mps 748 mmHg 66%
    22:00 -1°C° 0 mm 7 mps 749 mmHg 66%
    23:00 -2°C° 0 mm 7 mps 750 mmHg 69%

    Day after tomorrow, 18 January, Friday

    Time Temperature Precipitation Wind Pressure Humidity
    00:00 -2°C° 0 mm 6 mps 751 mmHg 72%
    01:00 -3°C° 0 mm 6 mps 751 mmHg 75%
    02:00 -3°C° 0.1 mm 6 mps 752 mmHg 74%
    03:00 -3°C° 0.1 mm 6 mps 753 mmHg 74%
    04:00 -3°C° 0.1 mm 6 mps 754 mmHg 74%
    05:00 -3°C° 0.1 mm 6 mps 755 mmHg 74%
    06:00 -2°C° 0.1 mm 5 mps 756 mmHg 74%
    07:00 -4°C° 0.1 mm 5 mps 756 mmHg 73%
    08:00 -2°C° 0 mm 5 mps 757 mmHg 71%
    09:00 -2°C° 0 mm 5 mps 758 mmHg 68%
    10:00 -2°C° 0 mm 5 mps 759 mmHg 66%
    11:00 -1°C° 0 mm 5 mps 759 mmHg 62%
    12:00 -1°C° 0 mm 4 mps 760 mmHg 59%
    13:00 0°C° 0 mm 4 mps 760 mmHg 55%
    14:00 0°C° 0 mm 3 mps 760 mmHg 58%
    15:00 0°C° 0 mm 3 mps 760 mmHg 60%
    16:00 -1°C° 0 mm 3 mps 760 mmHg 63%
    17:00 -1°C° 0 mm 3 mps 761 mmHg 67%
    18:00 -1°C° 0 mm 3 mps 761 mmHg 72%
    19:00 -1°C° 0 mm 3 mps 761 mmHg 76%
    20:00 -1°C° 0 mm 3 mps 761 mmHg 80%
    21:00 -1°C° 0 mm 3 mps 761 mmHg 84%
    22:00 -1°C° 0 mm 3 mps 762 mmHg 88%
    23:00 -1°C° 0 mm 3 mps 762 mmHg 88%

    19 January, Saturday

    Time Temperature Precipitation Wind Pressure Humidity
    00:00 -1°C° 0 mm 3 mps 762 mmHg 88%
    01:00 -1°C° 0 mm 3 mps 762 mmHg 88%
    02:00 -2°C° 0 mm 2 mps 762 mmHg 88%
    03:00 -2°C° 0 mm 2 mps 762 mmHg 88%
    04:00 -2°C° 0 mm 2 mps 762 mmHg 88%
    05:00 -2°C° 0 mm 2 mps 762 mmHg 88%
    06:00 -2°C° 0 mm 2 mps 762 mmHg 88%
    07:00 -2°C° 0 mm 2 mps 762 mmHg 88%
    08:00 -2°C° 0 mm 2 mps 762 mmHg 85%
    09:00 -1°C° 0 mm 2 mps 762 mmHg 83%
    10:00 -1°C° 0 mm 2 mps 762 mmHg 80%
    11:00 +1°C° 0 mm 2 mps 762 mmHg 76%
    12:00 +2°C° 0 mm 2 mps 762 mmHg 72%
    13:00 +4°C° 0 mm 1 mps 762 mmHg 68%
    14:00 +3°C° 0 mm 1 mps 762 mmHg 72%
    15:00 +2°C° 0 mm 1 mps 761 mmHg 75%
    16:00 +1°C° 0 mm 0 mps 761 mmHg 78%
    17:00 0°C° 0 mm 0 mps 761 mmHg 80%
    18:00 0°C° 0 mm 0 mps 762 mmHg 81%
    19:00 -1°C° 0 mm 0 mps 762 mmHg 83%
    20:00 -1°C° 0 mm 0 mps 762 mmHg 83%
    21:00 -1°C° 0 mm 0 mps 762 mmHg 83%
    22:00 -1°C° 0 mm 0 mps 762 mmHg 83%
    23:00 -1°C° 0 mm 0 mps 762 mmHg 83%

    20 January, Sunday

    Time Temperature Precipitation Wind Pressure Humidity
    00:00 -1°C° 0 mm 0 mps 763 mmHg 83%
    01:00 0°C° 0 mm 1 mps 763 mmHg 83%
    02:00 0°C° 0 mm 1 mps 763 mmHg 84%
    03:00 0°C° 0 mm 1 mps 763 mmHg 86%
    04:00 -1°C° 0 mm 1 mps 763 mmHg 87%
    05:00 -1°C° 0 mm 1 mps 763 mmHg 88%
    06:00 -1°C° 0 mm 1 mps 764 mmHg 90%
    07:00 -1°C° 0 mm 1 mps 764 mmHg 91%
    08:00 0°C° 0 mm 1 mps 764 mmHg 89%
    09:00 0°C° 0 mm 1 mps 765 mmHg 86%
    10:00 +1°C° 0 mm 1 mps 766 mmHg 84%
    11:00 +1°C° 0 mm 1 mps 766 mmHg 78%
    12:00 +2°C° 0 mm 1 mps 766 mmHg 72%
    13:00 +3°C° 0 mm 1 mps 766 mmHg 66%
    14:00 +2°C° 0 mm 1 mps 766 mmHg 69%
    15:00 +1°C° 0 mm 1 mps 766 mmHg 73%
    16:00 +1°C° 0 mm 1 mps 767 mmHg 77%
    17:00 0°C° 0 mm 1 mps 767 mmHg 77%
    18:00 0°C° 0 mm 1 mps 767 mmHg 78%
    19:00 -1°C° 0 mm 1 mps 768 mmHg 79%
    20:00 -1°C° 0 mm 1 mps 768 mmHg 78%
    21:00 -1°C° 0 mm 1 mps 769 mmHg 77%
    22:00 -1°C° 0 mm 1 mps 769 mmHg 77%
    23:00 -1°C° 0 mm 1 mps 769 mmHg 76%

    21 January, Monday

    Time Temperature Precipitation Wind Pressure Humidity
    00:00 -1°C° 0 mm 1 mps 769 mmHg 76%
    01:00 -1°C° 0 mm 1 mps 770 mmHg 75%
    02:00 -1°C° 0 mm 1 mps 770 mmHg 75%
    03:00 -1°C° 0 mm 1 mps 770 mmHg 75%
    04:00 -1°C° 0 mm 1 mps 770 mmHg 75%
    05:00 -2°C° 0 mm 0 mps 770 mmHg 75%
    06:00 -2°C° 0 mm 0 mps 770 mmHg 76%
    07:00 -2°C° 0 mm 0 mps 771 mmHg 76%
    08:00 -2°C° 0 mm 0 mps 771 mmHg 73%
    09:00 -1°C° 0 mm 0 mps 771 mmHg 71%
    10:00 -1°C° 0 mm 0 mps 771 mmHg 68%
    11:00 +1°C° 0 mm 1 mps 771 mmHg 65%
    12:00 +1°C° 0 mm 1 mps 770 mmHg 62%
    13:00 +2°C° 0 mm 1 mps 770 mmHg 59%
    14:00 +1°C° 0 mm 1 mps 770 mmHg 62%
    15:00 +1°C° 0 mm 1 mps 770 mmHg 65%
    16:00 0°C° 0 mm 1 mps 769 mmHg 68%
    17:00 0°C° 0 mm 1 mps 769 mmHg 69%
    18:00 -1°C° 0 mm 1 mps 769 mmHg 71%
    19:00 -3°C° 0 mm 2 mps 769 mmHg 72%
    20:00 -3°C° 0 mm 2 mps 768 mmHg 70%
    21:00 -3°C° 0 mm 2 mps 768 mmHg 67%
    22:00 -4°C° 0 mm 3 mps 767 mmHg 65%
    23:00 -4°C° 0 mm 3 mps 767 mmHg 63%
    Show more